Change the Weather History Date:

Wednesday, February 12, 2014

  Actual Average Record
Temperature  
Mean Temperature 8 °F -  
Max Temperature 23 °F 26 °F 55 °F (1999)
Min Temperature -8 °F 8 °F -8 °F (2014)
Degree Days  
Heating Degree Days 58    
Moisture  
Dew Point -4 °F    
Average Humidity 66    
Maximum Humidity 84    
Minimum Humidity 39    
Precipitation  
Precipitation 0.00 in - - ()
Sea Level Pressure  
Sea Level Pressure 30.42 in    
Wind  
Wind Speed 11 mph (SE)    
Max Wind Speed 15 mph    
Max Gust Speed -    
Visibility 9 miles    
Events Snow    
Averages and records for this station are not official NWS values.
T = Trace of Precipitation, MM = Missing Value Source: NWS Daily Summary

Daily Weather History Graph

Daily Weather History Graph

Search for Another Location

Airport or City:

Trip Planner

Search our weather history database for the weather conditions in past years. The results will help you decide how hot, cold, wet, or windy it might be!

Date:

Astronomy

Feb. 12, 2014 Rise Set
Actual Time 7:06 AM EST 5:28 PM EST
Civil Twilight 6:36 AM EST 5:58 PM EST
Nautical Twilight 6:02 AM EST 6:32 PM EST
Astronomical Twilight 5:29 AM EST 7:05 PM EST
Moon 3:38 PM EST (2/12) 5:23 AM EST (2/12)
Length of Visible Light 11h 21m
Length of Day
10h 21m
Waxing Gibbous, 95% of the Moon is Illuminated
Feb 12
Waxing Gibbous
Feb 14
Full
Feb 22
Last Quarter
Mar 1
New
Mar 8
First Quarter

Hourly Weather History & Observations

Time (EST) Temp. Windchill Dew Point Humidity Pressure Visibility Wind Dir Wind Speed Gust Speed Precip Events Conditions
12:58 AM -5.1 °F -22.5 °F -9.2 °F 82% 30.51 in 10.0 mi SE 10.4 mph - N/A   Clear
1:58 AM -6.0 °F -25.5 °F -10.1 °F 82% 30.51 in 10.0 mi SE 12.7 mph - N/A   Clear
2:58 AM -6.0 °F -25.5 °F -10.1 °F 82% 30.51 in 10.0 mi SE 12.7 mph - N/A   Clear
3:58 AM -6.3 °F -25.9 °F -10.7 °F 82% 30.51 in 10.0 mi SE 12.7 mph - N/A   Clear
4:58 AM -7.1 °F -26.8 °F -11.4 °F 81% 30.52 in 10.0 mi SE 12.7 mph - N/A   Clear
5:58 AM -8.5 °F -28.6 °F -13.0 °F 81% 30.53 in 10.0 mi SE 12.7 mph - N/A   Clear
6:53 AM -7.6 °F -27.5 °F -13.0 °F 77% 30.47 in - SE 12.7 mph - N/A   Haze
6:58 AM -7.6 °F -27.5 °F -13.0 °F 77% 30.55 in 4.0 mi SE 12.7 mph - N/A   Haze
7:26 AM -7.6 °F -29.1 °F -13.0 °F 77% 30.48 in 0.8 mi SE 15.0 mph - N/A   Light Freezing Rain
7:33 AM -7.6 °F -27.5 °F -11.2 °F 84% 30.48 in 0.2 mi SE 12.7 mph - N/A Snow Heavy Snow
7:58 AM -6.5 °F -27.0 °F -11.0 °F 81% 30.55 in 10.0 mi SE 13.8 mph - 0.00 in   Clear
8:58 AM -3.1 °F -22.6 °F -7.8 °F 80% 30.55 in 10.0 mi SE 13.8 mph - N/A   Clear
9:58 AM 2.3 °F -14.2 °F -3.3 °F 77% 30.53 in 10.0 mi SE 11.5 mph - N/A   Clear
10:58 AM 8.4 °F -5.7 °F 0.9 °F 71% 30.48 in 10.0 mi SE 10.4 mph - N/A   Clear
11:58 AM 12.7 °F 5.0 °F 2.8 °F 65% 30.49 in 10.0 mi SSE 4.6 mph - N/A   Clear
12:41 PM 15.8 °F - 3.2 °F 58% 30.40 in 10.0 mi Variable 2.3 mph - N/A   Clear
12:50 PM 15.8 °F 10.2 °F 3.2 °F 58% 30.40 in 10.0 mi SE 3.5 mph - N/A   Clear
12:58 PM 16.5 °F - 4.5 °F 59% 30.45 in 10.0 mi SE 2.3 mph - 0.00 in   Clear
1:58 PM 18.3 °F 13.1 °F 6.6 °F 60% 30.40 in 10.0 mi SSE 3.5 mph - N/A   Clear
2:58 PM 19.0 °F - 6.4 °F 58% 30.36 in 10.0 mi NE 1.2 mph - N/A   Clear
3:58 PM 23.0 °F 13.9 °F 1.4 °F 39% 30.32 in 10.0 mi SSE 8.1 mph - N/A   Clear
4:58 PM 21.6 °F 11.3 °F 0.3 °F 40% 30.28 in 10.0 mi SSE 9.2 mph - N/A   Clear
5:58 PM 19.0 °F 6.8 °F 1.2 °F 46% 30.27 in 10.0 mi SSE 11.5 mph - N/A   Clear
6:58 PM 16.9 °F 4.8 °F 2.7 °F 54% 30.27 in 10.0 mi SSE 10.4 mph - N/A   Clear
7:58 PM 15.3 °F 2.8 °F 1.4 °F 54% 30.27 in 10.0 mi South 10.4 mph - N/A   Clear
8:58 PM 15.6 °F 1.8 °F 1.0 °F 53% 30.25 in 10.0 mi SSE 12.7 mph - N/A   Clear
9:58 PM 15.6 °F 1.8 °F -0.4 °F 49% 30.25 in 10.0 mi SE 12.7 mph - N/A   Clear
10:58 PM 14.2 °F 0.7 °F -0.9 °F 51% 30.23 in 10.0 mi SE 11.5 mph - N/A   Clear
11:58 PM 13.6 °F 0.7 °F -0.9 °F 52% 30.22 in 10.0 mi SE 10.4 mph - N/A   Clear